Content
SEND FEEDBACK

Daily
Averages
Monthly
Summary
United States of America

MARBLEHEAD, OHIO


Home > North America > United States > Ohio
Elevation: 630 feet     Latitude: 41 30N     Longitude: 082 42W

WEATHER
 
SELECT A DAY
Number of Records: 185,502;   Date Range: 10/8/98 - 12/17/14
 
SHARE

PRINT THIS DATA

[ ← Previous Day ]
WEATHER ALMANAC - JULY 28, 2013
[ Next Day → ]
[ °C ]   °F
Weather ElementAverageHighLow
Temperature61.7 °F70 °F (2:53 pm)53.1 °F (5:53 am)
Dewpoint53.3 °F59 °F (12:35 am)50 °F (5:53 am)
Humidity75.5 %93 % (6:53 am)51 % (2:53 pm)
Barometer29.95 in30.03 in (11:53 pm)29.87 in (12:53 am)
Wind Speed7.2 mph16.1 mph (2:53 pm)
Wind Gust21.9 mph (2:53 pm)
Weather ElementAverage
Visibility9.6 mi
Wind DirectionWSW (241.6 °)

Weather ElementTotal
Precipitation0.07 in
Heating Degree Days3.5 (Base 65)
Growing Degree Days11.6 (Base 50)
Averaged from 25 records on July 28, 2013
WEATHER CONDITIONS BREAKOUT
WIND DIRECTION BREAKOUT
WEATHER BY HOUR - JULY 28, 2013
[ °C ]   °F
Local TimeTemperatureDewpointHumidityBarometerVisibilityWind DirectionWind SpeedGust SpeedPrecipitationEventsConditions
12:35 AM62.6 °F59.0 °F88 %29.88 in5.0 miWest (280°)6.9 mph0.02 inRainLight Rain
12:53 AM62.1 °F59.0 °F90 %29.87 in10.0 miWest (280°)4.6 mph0.02 inMostly Cloudy
1:53 AM60.1 °F55.9 °F86 %29.88 in10.0 miWest (280°)5.8 mphScattered Clouds
2:53 AM57.0 °F54.0 °F89 %29.88 in10.0 miWSW (250°)4.6 mphScattered Clouds
3:53 AM55.9 °F52.0 °F87 %29.89 in10.0 miWest (270°)4.6 mphClear
4:53 AM54.0 °F51.1 °F90 %29.90 in10.0 miWest (260°)4.6 mph0.01 inClear
5:53 AM53.1 °F50.0 °F89 %29.91 in10.0 miSW (230°)3.5 mphClear
6:53 AM53.1 °F51.1 °F93 %29.93 in10.0 miSW (220°)4.6 mphClear
7:53 AM57.0 °F53.1 °F87 %29.94 in10.0 miSW (220°)5.8 mphMostly Cloudy
8:53 AM61.0 °F54.0 °F78 %29.96 in10.0 miWest (260°)6.9 mphOvercast
9:53 AM62.1 °F51.1 °F67 %29.96 in10.0 miWest (260°)9.2 mphMostly Cloudy
10:53 AM64.9 °F51.1 °F61 %29.95 in10.0 miWest (260°)8.1 mphClear
11:53 AM64.9 °F51.1 °F61 %29.95 in10.0 miSW (230°)9.2 mph19.6 mphMostly Cloudy
12:53 PM66.0 °F52.0 °F60 %29.95 in10.0 miWSW (250°)11.5 mph18.4 mphScattered Clouds
1:53 PM66.9 °F51.1 °F57 %29.95 in10.0 miWSW (240°)13.8 mphMostly Cloudy
2:53 PM70.0 °F51.1 °F51 %29.95 in10.0 miWest (260°)16.1 mph21.9 mphMostly Cloudy
3:53 PM69.1 °F51.1 °F53 %29.95 in10.0 miWSW (250°)6.9 mph19.6 mphMostly Cloudy
4:53 PM66.9 °F50.0 °F54 %29.97 in10.0 miWest (260°)13.8 mph19.6 mphOvercast
5:53 PM66.0 °F51.1 °F59 %29.96 in10.0 miSW (230°)9.2 mph0.00 inOvercast
6:53 PM66.9 °F51.1 °F57 %29.96 in10.0 miSW (230°)9.2 mphOvercast
7:53 PM62.1 °F55.9 °F80 %29.99 in5.0 miNNW (340°)5.8 mph0.01 inRainLight Rain
8:53 PM61.0 °F57.0 °F87 %30.00 in10.0 miCalm0.01 inMostly Cloudy
9:53 PM61.0 °F57.0 °F87 %30.01 in10.0 miSSW (200°)4.6 mph0.00 inOvercast
10:53 PM61.0 °F57.0 °F87 %30.02 in10.0 miSW (230°)4.6 mphOvercast
11:53 PM57.9 °F55.0 °F90 %30.03 in10.0 miWSW (250°)5.8 mphMostly Cloudy
Hourly data recorded from KLPR, located miles away from Marblehead, Ohio







STORIES FROM OUR PARTNERS